TimeCDT,TemperatureF,Dew PointF,Humidity,Sea Level PressureIn,VisibilityMPH,Wind Direction,Wind SpeedMPH,Gust SpeedMPH,PrecipitationIn,Events,Conditions,WindDirDegrees,DateUTC
12:53 AM,68.0,39.9,36,30.08,10.0,SSW,13.8,-,N/A,,Clear,200,2013-05-13 05:53:00
1:53 AM,68.0,39.9,36,30.07,10.0,SW,18.4,-,N/A,,Clear,220,2013-05-13 06:53:00
2:53 AM,66.9,39.9,37,30.07,10.0,SW,17.3,-,N/A,,Clear,220,2013-05-13 07:53:00
3:53 AM,64.9,41.0,42,30.07,10.0,SW,16.1,-,N/A,,Clear,220,2013-05-13 08:53:00
4:53 AM,64.9,41.0,42,30.07,10.0,SW,15.0,-,N/A,,Clear,220,2013-05-13 09:53:00
5:53 AM,63.0,39.9,43,30.07,10.0,SW,11.5,-,N/A,,Clear,230,2013-05-13 10:53:00
6:53 AM,63.0,39.9,43,30.09,10.0,WSW,11.5,-,N/A,,Clear,250,2013-05-13 11:53:00
7:53 AM,64.9,39.9,40,30.11,10.0,WSW,10.4,-,N/A,,Clear,240,2013-05-13 12:53:00
8:53 AM,72.0,41.0,33,30.12,10.0,WSW,20.7,-,N/A,,Clear,250,2013-05-13 13:53:00
9:53 AM,78.1,41.0,27,30.12,10.0,West,20.7,29.9,N/A,,Clear,270,2013-05-13 14:53:00
10:53 AM,82.0,39.9,22,30.11,10.0,West,20.7,-,N/A,,Clear,270,2013-05-13 15:53:00
11:53 AM,84.9,39.9,20,30.10,10.0,West,17.3,25.3,N/A,,Clear,260,2013-05-13 16:53:00
12:53 PM,87.1,39.9,19,30.08,10.0,SW,18.4,26.5,N/A,,Clear,220,2013-05-13 17:53:00
1:53 PM,91.0,37.9,15,30.06,10.0,SW,17.3,27.6,N/A,,Clear,220,2013-05-13 18:53:00
3:53 PM,91.9,34.0,13,30.02,10.0,WSW,19.6,23.0,N/A,,Clear,240,2013-05-13 20:53:00
4:53 PM,91.9,33.1,12,30.01,10.0,SSW,18.4,25.3,N/A,,Clear,200,2013-05-13 21:53:00
5:53 PM,91.9,30.9,11,30.00,10.0,SW,19.6,-,N/A,,Clear,220,2013-05-13 22:53:00
6:53 PM,89.6,30.2,12,30.07,10.0,SSW,18.4,24.2,N/A,,Clear,210,2013-05-13 23:53:00
7:53 PM,87.1,28.9,12,29.99,10.0,SSW,16.1,-,N/A,,Clear,200,2013-05-14 00:53:00
8:53 PM,78.8,32.0,18,30.08,10.0,SSW,11.5,-,N/A,,Clear,200,2013-05-14 01:53:00
9:53 PM,75.9,34.0,22,30.02,10.0,South,11.5,-,N/A,,Clear,190,2013-05-14 02:53:00
10:53 PM,75.0,34.0,22,30.03,10.0,South,15.0,-,N/A,,Clear,190,2013-05-14 03:53:00
11:53 PM,73.9,34.0,23,30.02,10.0,South,18.4,-,N/A,,Clear,190,2013-05-14 04:53:00